TimeEST,TemperatureF,Dew PointF,Humidity,Sea Level PressureIn,VisibilityMPH,Wind Direction,Wind SpeedMPH,Gust SpeedMPH,PrecipitationIn,Events,Conditions,WindDirDegrees,DateUTC
12:51 AM,30.0,27.0,88,29.92,3.0,NNE,5.8,-,0.00,Snow,Light Snow,30,2013-02-06 05:51:00
1:44 AM,30.2,26.6,86,29.93,4.0,ENE,3.5,-,0.00,Snow,Light Snow,60,2013-02-06 06:44:00
1:51 AM,30.0,27.0,88,29.93,3.0,NE,3.5,-,0.00,Snow,Light Snow,40,2013-02-06 06:51:00
2:05 AM,30.2,26.6,86,29.93,3.0,ENE,4.6,-,0.00,Snow,Light Snow,60,2013-02-06 07:05:00
2:49 AM,30.2,28.4,93,29.93,3.0,East,3.5,-,0.00,Snow,Light Freezing Drizzle,80,2013-02-06 07:49:00
2:51 AM,30.0,28.0,92,29.93,3.0,East,3.5,-,0.00,Snow,Light Freezing Drizzle,90,2013-02-06 07:51:00
3:26 AM,30.2,26.6,86,29.93,4.0,ESE,4.6,-,0.00,,Overcast,110,2013-02-06 08:26:00
3:51 AM,30.0,28.0,92,29.94,5.0,Calm,Calm,-,0.00,,Overcast,0,2013-02-06 08:51:00
4:10 AM,30.2,28.4,93,29.94,4.0,Calm,Calm,-,N/A,,Overcast,0,2013-02-06 09:10:00
4:51 AM,32.0,28.0,85,29.96,6.0,West,4.6,-,N/A,,Overcast,260,2013-02-06 09:51:00
5:51 AM,32.0,26.1,79,29.98,7.0,WNW,10.4,-,N/A,,Scattered Clouds,300,2013-02-06 10:51:00
6:51 AM,32.0,26.1,79,30.01,7.0,WNW,9.2,-,N/A,,Mostly Cloudy,290,2013-02-06 11:51:00
7:51 AM,32.0,25.0,75,30.05,7.0,West,9.2,-,N/A,,Partly Cloudy,280,2013-02-06 12:51:00
8:51 AM,33.1,25.0,72,30.07,7.0,WNW,11.5,-,N/A,,Clear,290,2013-02-06 13:51:00
9:51 AM,34.0,21.9,61,30.09,10.0,NW,16.1,-,N/A,,Partly Cloudy,310,2013-02-06 14:51:00
10:51 AM,36.0,24.1,62,30.10,10.0,WNW,10.4,-,N/A,,Scattered Clouds,300,2013-02-06 15:51:00
11:51 AM,37.9,19.9,48,30.09,10.0,West,11.5,20.7,N/A,,Mostly Cloudy,280,2013-02-06 16:51:00
12:51 PM,37.0,19.0,48,30.10,10.0,WNW,13.8,21.9,N/A,,Mostly Cloudy,300,2013-02-06 17:51:00
1:51 PM,37.9,19.0,47,30.10,10.0,NW,12.7,-,N/A,,Mostly Cloudy,310,2013-02-06 18:51:00
2:51 PM,39.0,16.0,39,30.12,10.0,WNW,16.1,26.5,N/A,,Mostly Cloudy,290,2013-02-06 19:51:00
3:51 PM,39.0,18.0,43,30.14,10.0,NW,17.3,24.2,N/A,,Scattered Clouds,320,2013-02-06 20:51:00
4:51 PM,37.9,18.0,45,30.17,10.0,WNW,16.1,26.5,N/A,,Scattered Clouds,300,2013-02-06 21:51:00
5:51 PM,37.0,15.1,41,30.20,10.0,NW,16.1,-,N/A,,Scattered Clouds,310,2013-02-06 22:51:00
6:51 PM,36.0,14.0,41,30.25,10.0,NW,19.6,-,N/A,,Scattered Clouds,320,2013-02-06 23:51:00
7:51 PM,35.1,12.9,40,30.27,10.0,NW,15.0,23.0,N/A,,Clear,320,2013-02-07 00:51:00
8:51 PM,34.0,10.9,38,30.31,10.0,NNW,17.3,25.3,N/A,,Clear,330,2013-02-07 01:51:00
9:51 PM,32.0,7.0,35,30.32,10.0,NNW,12.7,21.9,N/A,,Clear,330,2013-02-07 02:51:00
10:51 PM,30.9,5.0,33,30.35,10.0,NNW,11.5,-,N/A,,Clear,340,2013-02-07 03:51:00
11:51 PM,30.9,1.0,28,30.35,10.0,North,8.1,-,N/A,,Clear,350,2013-02-07 04:51:00